User: anonymous   Login
Location: Caltech
(34.1382°N, 118.1253°W)
Time: 13:39:38
(UTC-07:00)
Language:

HO-68 - Orbit

View from above orbital plane
View from above orbital plane
View from above satellite
View from above satellite

Ground track
Ground track

The orbit data is extracted from the following two-line orbital elements,

1 36122U 09072B   17142.95430760 -.00000008 +00000-0 +89322-4 0  9998
2 36122 100.1022 170.4037 0006795 295.8479 064.1933 13.16339522357203
Epoch (UTC): 22 May 2017 22:54:12
Eccentricity: 0.0006795
inclination: 100.1022°
perigee height: 1193 km
apogee height: 1204 km
right ascension of ascending node: 170.4037°
argument of perigee: 295.8479°
revolutions per day: 13.16339522
mean anomaly at epoch: 64.1933°
orbit number at epoch: 35720

The dashed part of the orbit path shows where the satellite is in the earth's shadow,  

DLR